Akron, CO

6:18 PM MDT on April 27, 2017 (GMT -0600)
Akron-Washington County

Weather History for KAKO - March, 2014

Change the Weather History Date:

Monday, March 31, 2014

  Actual Average Record
Temperature  
Mean Temperature 41 °F 43 °F  
Max Temperature 52 °F 56 °F 84 °F (1940)
Min Temperature 29 °F 29 °F 2 °F (1954)
Degree Days  
Heating Degree Days 24    
Month to date heating degree days 794  
Cooling Degree Days 0    
Month to date cooling degree days 0  
Moisture  
Dew Point 21 °F    
Average Humidity 52    
Maximum Humidity 75    
Minimum Humidity 28    
Precipitation  
Precipitation 0.00 in 0.04 in 0.29 in (1955)
Month to date precipitation 0.43 0.87  
Year to date precipitation 0.86 1.61  
Sea Level Pressure  
Sea Level Pressure 29.79 in    
Wind  
Wind Speed 28 mph (NW)    
Max Wind Speed 49 mph    
Max Gust Speed 63 mph    
Visibility 6 miles    
Events      
T = Trace of Precipitation, MM = Missing Value Source: NWS Daily Summary

Daily Weather History Graph

Daily Weather History Graph

Search for Another Location

Airport or City:

Trip Planner

Search our weather history database for the weather conditions in past years. The results will help you decide how hot, cold, wet, or windy it might be!

Date:

Astronomy

Mar. 31, 2014 Rise Set
Actual Time 6:38 AM MDT 7:16 PM MDT
Civil Twilight 6:10 AM MDT 7:43 PM MDT
Nautical Twilight 5:38 AM MDT 8:16 PM MDT
Astronomical Twilight 5:05 AM MDT 8:49 PM MDT
Moon 7:03 AM MDT (3/31) 8:37 PM MDT (3/31)
Length of Visible Light 13h 32m
Length of Day
12h 38m
New Moon, 1% of the Moon is Illuminated
Mar 31
New Moon
Apr 7
First Quarter
Apr 15
Full
Apr 22
Last Quarter
Apr 29
New

Hourly Weather History & Observations

Time (MDT) Temp. Windchill Dew Point Humidity Pressure Visibility Wind Dir Wind Speed Gust Speed Precip Events Conditions
12:53 AM 46.0 °F 39.3 °F 30.0 °F 54% 29.37 in 10.0 mi West 16.1 mph - N/A   Clear
1:53 AM 41.0 °F 34.7 °F 30.0 °F 65% 29.40 in 10.0 mi West 10.4 mph - N/A   Mostly Cloudy
2:53 AM 43.0 °F 37.7 °F 28.0 °F 56% 29.42 in 10.0 mi WNW 9.2 mph - N/A   Overcast
3:53 AM 46.0 °F 38.8 °F 27.0 °F 47% 29.46 in 10.0 mi WNW 18.4 mph 25.3 mph N/A   Overcast
4:53 AM 46.9 °F - 19.9 °F 34% 29.49 in 10.0 mi WNW 38.0 mph 52.9 mph N/A   Overcast
5:53 AM 39.0 °F 27.8 °F 28.9 °F 67% 29.58 in 10.0 mi NNW 26.5 mph 36.8 mph N/A   Overcast
6:53 AM 36.0 °F 24.7 °F 28.0 °F 73% 29.63 in 10.0 mi NNW 21.9 mph 28.8 mph N/A   Clear
7:53 AM 37.9 °F 25.5 °F 28.0 °F 68% 29.64 in 10.0 mi NNW 31.1 mph 38.0 mph N/A   Clear
8:53 AM 39.9 °F 28.2 °F 24.1 °F 53% 29.67 in 10.0 mi NW 31.1 mph 50.6 mph N/A   Clear
9:53 AM 43.0 °F 30.9 °F 23.0 °F 45% 29.70 in 10.0 mi NW 41.4 mph 54.1 mph N/A   Clear
10:36 AM 46.9 °F - 21.0 °F 36% 29.77 in 6.0 mi NW 46.0 mph 58.7 mph N/A   Haze
10:53 AM 48.9 °F - 19.9 °F 32% 29.71 in 5.0 mi NW 41.4 mph 56.4 mph N/A   Haze
11:10 AM 48.9 °F - 19.0 °F 31% 29.79 in 2.5 mi NW 41.4 mph 57.5 mph N/A   Haze
11:23 AM 50.0 °F - 18.0 °F 28% 29.79 in 3.0 mi NW 46.0 mph 56.4 mph N/A   Haze
11:32 AM 51.1 °F - 19.0 °F 28% 29.80 in 5.0 mi NW 40.3 mph 56.4 mph N/A   Haze
11:35 AM 51.1 °F - 19.0 °F 28% 29.80 in 1.8 mi NW 44.9 mph 56.4 mph N/A   Haze
11:44 AM 50.0 °F - 19.0 °F 29% 29.80 in 3.0 mi NW 39.1 mph 55.2 mph N/A   Haze
11:53 AM 50.0 °F - 19.0 °F 29% 29.75 in 2.5 mi NW 41.4 mph 54.1 mph N/A   Haze
11:59 AM 51.1 °F - 19.0 °F 28% 29.81 in 4.0 mi NW 43.7 mph 62.1 mph N/A   Haze
12:27 PM 48.9 °F - 19.0 °F 31% 29.83 in 1.8 mi NNW 41.4 mph 50.6 mph N/A   Haze
12:31 PM 50.0 °F - 19.0 °F 29% 29.83 in 1.2 mi NW 44.9 mph 55.2 mph N/A   Haze
12:36 PM 50.0 °F - 19.0 °F 29% 29.83 in 1.8 mi NW 47.2 mph 55.2 mph N/A   Haze
12:41 PM 50.0 °F - 19.0 °F 29% 29.83 in 3.0 mi NW 42.6 mph 55.2 mph N/A   Haze
12:44 PM 51.1 °F - 19.0 °F 28% 29.84 in 1.8 mi NW 44.9 mph 55.2 mph N/A   Haze
12:53 PM 51.1 °F - 19.0 °F 28% 29.78 in 2.5 mi NW 36.8 mph 51.8 mph N/A   Haze
1:01 PM 51.1 °F - 19.0 °F 28% 29.85 in 1.2 mi NNW 41.4 mph 51.8 mph N/A   Haze
1:10 PM 51.1 °F - 19.0 °F 28% 29.85 in 1.0 mi NW 35.7 mph 55.2 mph N/A   Haze
1:14 PM 50.0 °F - 19.0 °F 29% 29.85 in 1.5 mi NW 40.3 mph 50.6 mph N/A   Haze
1:21 PM 51.1 °F - 19.0 °F 28% 29.86 in 2.5 mi NNW 35.7 mph 49.5 mph N/A   Haze
1:32 PM 51.1 °F - 19.0 °F 28% 29.87 in 4.0 mi NW 34.5 mph 48.3 mph N/A   Haze
1:53 PM 51.1 °F - 19.0 °F 28% 29.83 in 6.0 mi NNW 35.7 mph 50.6 mph N/A   Haze
2:53 PM 51.1 °F - 19.9 °F 29% 29.86 in 9.0 mi NNW 38.0 mph 47.2 mph N/A   Scattered Clouds
3:32 PM 51.1 °F - 21.0 °F 31% 29.91 in 3.0 mi NNW 34.5 mph 42.6 mph N/A   Haze
3:53 PM 50.0 °F - 19.9 °F 31% 29.86 in 3.0 mi North 31.1 mph 41.4 mph N/A   Haze
4:53 PM 48.0 °F - 21.0 °F 34% 29.87 in 7.0 mi North 26.5 mph 36.8 mph N/A   Clear
5:53 PM 45.0 °F 36.4 °F 21.0 °F 39% 29.95 in 10.0 mi North 23.0 mph 32.2 mph N/A   Clear
6:53 PM 41.0 °F 31.9 °F 21.0 °F 45% 29.97 in 10.0 mi North 19.6 mph - N/A   Clear
7:53 PM 34.0 °F 26.6 °F 21.0 °F 59% 30.01 in 10.0 mi NE 9.2 mph - N/A   Clear
8:53 PM 33.1 °F 24.9 °F 21.0 °F 61% 30.02 in 10.0 mi NE 10.4 mph - N/A   Clear
9:53 PM 30.0 °F 24.1 °F 21.0 °F 69% 30.05 in 10.0 mi SE 5.8 mph - N/A   Clear
10:53 PM 28.9 °F 21.9 °F 21.0 °F 72% 30.05 in 10.0 mi South 6.9 mph - N/A   Clear
11:53 PM 30.9 °F 25.2 °F 21.0 °F 67% 30.04 in 10.0 mi South 5.8 mph - N/A   Clear